KLEMETTI Weather Reports


time (UTC)temp
F
wind
direction
speed
knots
gust
knots
rain 1hr
in
rain 24hr
in
rain mn
in
humidity
%
barometer
mb
20260508082732 53 266 6.1 9.6 0.00 0.00 0.00 29 1026.4
20260508080734 53 258 6.1 11.3 0.00 0.00 0.00 31 1026.3
20260508074733 51 252 7.0 9.6 0.00 0.00 0.00 34 1026.1
20260508072733 52 265 6.1 7.8 0.00 0.00 0.00 37 1025.8
20260508070734 51 290 4.3 6.1 0.00 0.00 0.00 36 1025.6
20260508064732 49 276 3.5 6.1 0.00 0.00 0.00 43 1025.4
20260508062732 50 319 1.7 4.3 0.00 0.00 0.00 45 1025.2
20260508060733 49 266 3.5 5.2 0.00 0.00 0.00 51 1025.0
20260508054733 47 274 2.6 4.3 0.00 0.00 0.00 54 1024.8
20260508052733 46 271 3.5 6.1 0.00 0.00 0.00 60 1024.6
20260508050732 44 262 4.3 6.1 0.00 0.00 0.00 67 1024.4
20260508044733 42 272 4.3 6.1 0.00 0.00 0.00 74 1024.2
20260508042732 39 231 1.7 3.5 0.00 0.00 0.00 96 1023.9
20260508040732 37 237 3.5 4.3 0.00 0.00 0.00 98 1023.7
20260508034732 35 227 5.2 6.1 0.00 0.00 0.00 99 1023.6
20260508032732 33 234 5.2 6.1 0.00 0.00 0.00 99 1023.4
20260508030733 32 233 5.2 5.2 0.00 0.00 0.00 99 1023.2
20260508024732 31 210 4.3 5.2 0.00 0.00 0.00 98 1023.0
20260508022731 31 212 3.5 4.3 0.00 0.00 0.00 98 1022.8
20260508020732 32 221 4.3 5.2 0.00 0.00 0.00 98 1022.7
20260508014732 32 216 4.3 5.2 0.00 0.00 0.00 98 1022.5
20260508012732 32 217 4.3 5.2 0.00 0.00 0.00 98 1022.4
20260508010733 33 246 4.3 5.2 0.00 0.00 0.00 97 1022.2
20260508004732 35 243 3.5 5.2 0.00 0.00 0.00 97 1021.9
20260508002732 35 242 3.5 6.1 0.00 0.00 0.00 98 1021.9
20260508000734 34 229 5.2 7.0 0.00 0.00 0.00 97 1021.8
20260507234733 35 226 4.3 6.1 0.00 0.00 0.00 96 1021.5
20260507232732 37 217 4.3 7.0 0.00 0.00 0.00 94 1021.4
20260507230732 38 234 5.2 7.8 0.00 0.00 0.00 94 1021.2
20260507224731 38 235 5.2 8.7 0.00 0.00 0.00 94 1021.1
20260507222732 38 226 6.1 8.7 0.00 0.00 0.00 91 1021.1
20260507220731 38 242 4.3 7.0 0.00 0.00 0.00 91 1020.9
20260507214731 39 243 5.2 8.7 0.00 0.00 0.00 90 1020.5
20260507212731 39 251 6.1 8.7 0.00 0.00 0.00 88 1020.4
20260507210731 40 252 5.2 7.8 0.00 0.00 0.00 85 1020.3
20260507204732 40 250 7.0 9.6 0.00 0.00 0.00 84 1020.1
20260507202731 40 240 7.8 10.4 0.00 0.00 0.00 84 1019.9
20260507200732 40 257 5.2 8.7 0.00 0.00 0.00 81 1019.7
20260507194731 40 247 7.0 9.6 0.00 0.00 0.00 78 1019.5
20260507192731 41 256 7.0 9.6 0.00 0.00 0.00 74 1019.3
20260507190730 41 256 4.3 7.8 0.00 0.00 0.00 74 1019.1
20260507184731 42 268 7.0 11.3 0.00 0.00 0.00 71 1019.0
20260507180729 42 263 5.2 9.6 0.00 0.00 0.00 75 1018.8
20260507174731 42 278 7.0 11.3 0.00 0.00 0.00 75 1018.6
20260507172729 42 256 9.6 12.2 0.00 0.00 0.00 74 1018.4
20260507170729 43 262 8.7 13.0 0.00 0.00 0.00 72 1018.3
20260507164731 44 272 8.7 13.9 0.00 0.00 0.00 68 1018.0
20260507162730 44 261 10.4 14.8 0.00 0.00 0.00 72 1018.0
20260507160730 44 264 11.3 16.5 0.00 0.00 0.00 69 1017.9
20260507154730 44 264 10.4 15.6 0.00 0.00 0.00 73 1017.7
20260507152729 44 265 12.2 16.5 0.00 0.00 0.00 67 1017.7
20260507150731 44 255 12.2 17.4 0.00 0.00 0.00 72 1017.8
20260507144731 44 260 11.3 16.5 0.00 0.00 0.00 72 1017.7
20260507142731 44 264 10.4 14.8 0.00 0.00 0.00 71 1017.5
20260507140730 44 276 10.4 13.9 0.00 0.00 0.00 73 1017.3
20260507134731 44 271 10.4 16.5 0.00 0.00 0.00 73 1017.2
20260507132729 43 272 13.0 18.2 0.00 0.00 0.00 74 1017.1
20260507130730 44 263 13.0 20.0 0.00 0.00 0.00 68 1016.8
20260507124729 44 256 16.5 22.6 0.00 0.00 0.00 68 1016.7
20260507122729 46 256 12.2 18.2 0.00 0.00 0.00 58 1016.3
20260507120730 45 261 12.2 17.4 0.00 0.00 0.00 63 1016.1
20260507114730 47 263 9.6 15.6 0.00 0.00 0.00 65 1015.8
20260507112728 46 275 9.6 14.8 0.00 0.00 0.00 70 1015.7
20260507110729 45 276 8.7 13.0 0.00 0.00 0.00 69 1015.6
20260507104728 48 228 9.6 15.6 0.00 0.00 0.00 60 1015.6
20260507102728 46 252 14.8 19.1 0.00 0.00 0.00 61 1015.5
20260507100728 48 237 13.0 19.1 0.00 0.00 0.00 57 1015.3
20260507094729 49 240 9.6 14.8 0.00 0.00 0.00 50 1015.2
20260507092729 47 238 10.4 14.8 0.00 0.00 0.00 54 1015.3
20260507090729 48 256 9.6 13.9 0.00 0.00 0.00 47 1015.4
20260507084728 46 220 9.6 15.6 0.00 0.00 0.00 43 1015.3